Temperature
12 12 13 13 11 9 10 10 11 12 13 14 16 16 16 17 17 18 18 19 18 18 18 17 17 17 17 17 17 17 17 17 17 17 17 17 17 17 17 17 17 16 16 16 16 16 16 16 16
12 12 12 12 9 9 10 10 10 12 14 14 16 16 16 17 17 18 18 18 18 18 17 17 17 17 17 17 17 17 17 16 16 16 16 16 16 16 17 17 17 16 16 16 16 16 16 16 16
11 12 12 9 9 9 11 10 10 12 14 14 15 16 16 16 17 17 17 18 18 17 17 17 17 16 16 16 16 16 16 16 16 16 16 16 16 16 16 16 16 16 16 16 16 16 16 16 16
11 11 10 8 9 9 10 11 11 11 13 14 14 14 15 15 16 16 17 17 17 17 17 17 16 16 16 16 16 16 16 16 16 16 16 16 16 16 16 16 16 16 16 16 16 16 16 16 16
11 10 8 8 8 8 9 10 11 11 12 13 13 13 15 15 15 16 17 17 17 17 16 16 16 16 16 16 16 16 16 16 16 16 16 16 16 16 16 16 16 16 16 16 16 16 16 16 16
10 7 7 7 8 8 9 11 11 11 11 12 13 13 14 15 15 16 16 16 16 16 16 16 16 16 16 16 16 16 16 16 16 16 16 16 16 16 16 16 16 16 16 16 16 16 16 16 16
8 6 7 7 7 8 9 11 11 10 11 12 13 12 14 14 15 15 15 15 16 16 16 15 16 16 16 16 16 16 16 16 16 16 16 16 16 16 16 16 16 16 16 16 16 16 16 16 16
9 6 6 6 7 8 9 10 11 11 11 12 12 12 13 14 14 14 14 15 15 15 15 15 15 15 15 15 15 16 16 16 16 16 16 16 15 15 16 16 16 16 16 16 16 16 16 15 15
8 5 5 6 7 8 9 9 10 10 11 11 12 12 12 13 13 14 14 14 14 14 15 15 15 15 15 15 15 15 15 15 15 15 15 15 15 15 15 15 15 16 16 16 16 16 16 15 15
7 5 6 7 7 8 8 9 9 10 9 10 11 12 12 12 13 13 13 14 14 14 14 14 15 15 15 15 15 15 15 15 15 15 15 15 15 15 15 15 15 15 15 15 15 15 15 15 15
6 5 6 7 8 8 8 8 9 9 8 9 10 11 12 12 12 12 12 13 13 14 14 14 14 15 15 15 15 15 15 15 15 15 15 15 15 15 15 15 15 15 15 15 15 15 15 15 15
6 6 6 7 8 8 8 8 8 8 9 10 10 10 11 11 12 12 12 13 13 13 14 14 14 14 14 15 15 15 15 15 15 15 15 15 15 15 15 15 15 15 15 15 15 15 15 15 15
6 6 7 7 7 7 7 7 7 8 9 10 10 10 10 11 11 12 12 12 12 13 13 14 14 14 14 14 14 14 14 15 15 15 15 15 15 15 15 15 15 15 15 15 15 15 15 15 15
6 6 6 7 7 7 7 7 7 8 9 9 10 10 10 11 11 11 12 12 12 13 13 13 13 14 14 14 14 14 14 14 15 15 15 14 15 15 15 15 15 15 15 15 15 15 15 15 14
6 5 5 6 6 7 7 6 6 9 9 9 9 10 10 10 11 11 12 12 12 12 13 13 13 13 13 14 14 14 14 14 14 14 14 14 14 15 14 14 15 15 15 15 15 15 14 14 14
5 5 5 6 6 7 7 6 7 9 8 8 9 9 9 10 11 11 11 12 12 12 12 13 13 13 13 13 13 13 14 14 14 14 14 14 14 14 14 14 14 15 14 14 14 14 14 14 14
4 4 4 5 6 6 6 6 7 8 8 7 8 8 9 10 10 11 11 11 11 12 12 12 12 12 13 13 13 13 13 14 14 14 14 14 14 14 14 14 14 14 14 14 14 14 14 14 14
4 4 4 5 6 6 5 6 7 8 7 7 8 8 8 9 10 10 11 11 11 11 11 12 12 12 12 12 12 12 13 13 13 13 14 14 14 14 14 14 14 14 14 14 14 14 14 14 13
5 5 4 5 6 6 5 6 6 7 7 7 7 7 8 8 9 10 10 10 10 11 11 11 11 12 12 12 12 12 12 13 13 13 13 13 13 13 13 13 13 13 13 13 13 13 13 13 13
5 5 5 5 6 6 6 6 6 7 7 7 7 7 8 8 9 9 9 10 10 10 11 11 11 11 12 12 12 12 12 12 12 13 13 13 13 13 13 13 13 13 13 13 13 13 13 13 12
5 5 5 5 6 6 6 6 6 7 7 7 7 7 7 7 8 8 9 10 10 10 10 11 11 11 11 11 11 11 11 12 12 12 12 12 13 13 13 13 13 13 13 13 13 13 13 12 12
5 6 6 6 6 5 6 6 6 6 6 7 7 7 7 7 7 8 8 9 9 10 10 10 10 10 11 11 11 11 11 11 12 12 12 12 12 12 12 12 12 12 12 13 12 12 12 12 12
6 6 6 6 6 6 6 6 5 6 7 7 7 7 7 7 7 7 8 8 9 9 10 10 10 10 10 11 11 11 11 11 11 11 11 12 12 12 12 12 12 12 12 12 12 12 12 12 12
6 6 6 6 6 6 6 5 5 6 6 6 6 6 6 6 6 7 7 8 8 8 9 9 10 10 10 10 10 10 11 11 11 11 11 11 11 11 11 11 11 12 12 12 12 12 11 11 11
6 5 5 5 5 6 6 5 5 6 6 6 6 5 6 6 6 6 7 7 8 8 9 9 9 10 10 10 10 10 10 10 10 10 11 11 11 11 11 11 11 11 11 11 11 11 11 11 11
6 6 6 6 6 5 5 5 5 6 6 6 5 5 5 5 5 6 6 7 7 8 8 8 8 9 9 9 9 9 10 10 10 10 10 10 10 11 11 11 11 11 11 11 11 11 11 11 11
6 6 6 5 5 5 5 5 6 6 6 6 5 5 5 5 5 5 6 7 7 7 8 8 8 8 8 9 9 9 9 9 9 9 10 10 10 10 10 10 10 10 10 10 10 10 10 10 10
6 6 5 6 6 6 6 6 6 6 5 5 5 5 4 4 5 5 5 6 6 7 7 8 8 8 8 8 9 9 9 9 9 9 9 9 9 9 10 10 10 10 10 10 10 10 10 10 10
6 6 5 5 5 6 6 6 6 5 5 5 5 4 4 4 4 5 5 6 6 6 7 7 7 8 8 8 8 8 8 8 8 9 9 9 9 9 9 9 9 9 9 9 9 9 9 9 9
6 6 6 6 5 5 5 6 6 5 5 5 4 4 4 4 4 5 5 5 6 6 6 6 7 7 7 7 7 7 8 8 8 8 8 8 8 8 8 9 8 8 8 8 8 8 8 8 8
Wind_Speed
7 5 3 4 4 2 6 6 4 4 4 3 2 3 5 5 5 4 3 0 1 5 11 16 18 18 18 18 17 17 17 18 18 19 19 19 19 19 18 18 17 17 17 17 17 17 17 16 16
3 3 5 4 4 4 7 6 7 6 3 4 4 2 3 5 3 4 4 3 1 5 10 14 18 18 18 18 18 17 17 18 18 18 18 18 18 18 18 18 17 17 17 17 17 17 16 15 15
3 4 4 4 5 7 6 4 6 4 5 3 3 2 2 3 4 4 4 3 1 4 7 11 17 18 18 18 18 18 18 18 18 18 18 18 18 18 18 17 17 17 17 17 17 16 15 15 14
4 4 4 3 8 6 5 1 0 3 5 3 2 6 4 2 3 4 4 1 2 3 6 9 14 17 18 18 18 18 18 18 18 18 18 18 18 17 17 17 17 17 17 17 16 16 15 14 13
4 4 3 4 7 5 4 4 2 2 4 3 3 5 4 2 4 4 2 2 2 2 3 8 13 15 17 18 18 18 18 18 18 18 18 18 18 17 17 17 17 17 17 16 16 15 14 13 12
4 4 3 6 6 4 5 4 2 3 3 3 2 3 4 2 5 5 4 2 1 1 2 4 11 13 15 17 18 19 19 18 19 18 18 18 18 17 17 17 17 17 16 16 15 14 13 12 12
5 4 5 4 3 4 4 2 2 3 4 3 2 3 5 4 5 5 4 3 2 1 1 1 5 9 12 14 17 18 19 18 18 18 17 17 17 17 17 17 17 17 16 16 15 13 12 11 11
5 4 3 4 4 5 3 2 1 3 5 4 2 4 4 5 5 5 4 3 2 1 0 1 2 4 7 10 14 16 18 18 18 17 16 16 17 17 18 18 17 17 16 15 14 13 11 10 10
4 3 5 6 6 4 1 2 4 4 4 4 3 4 5 7 5 5 4 3 2 2 1 1 2 2 4 8 11 14 15 15 16 15 16 15 13 15 15 16 17 16 15 15 14 12 11 9 9
4 4 7 5 4 2 3 3 4 5 5 4 5 6 7 6 4 4 5 5 4 4 4 3 3 3 3 6 7 9 10 11 12 12 13 12 11 12 13 15 16 16 15 14 13 11 10 8 7
4 6 4 4 4 4 5 6 4 5 8 8 8 8 7 7 6 6 6 6 6 6 5 5 4 3 3 3 4 5 7 8 9 11 13 12 10 10 10 10 12 12 12 10 10 9 7 7 6
3 4 4 3 3 3 5 5 6 9 12 10 10 10 9 10 10 9 9 8 7 6 7 6 5 5 4 4 4 5 5 6 6 10 13 11 7 6 7 7 9 9 9 8 7 6 6 6 6
3 3 4 6 7 8 8 10 9 13 15 12 11 11 11 12 12 10 9 9 8 8 8 7 6 6 5 4 4 5 6 6 8 10 12 13 7 7 6 6 8 8 9 8 6 5 5 4 4
3 4 6 7 8 6 8 11 8 13 9 10 11 11 12 12 12 10 9 9 9 10 9 8 7 7 6 6 5 5 6 7 8 9 12 14 11 8 7 6 6 7 9 9 7 6 4 3 3
1 4 7 5 5 4 4 9 9 11 8 10 11 11 12 12 12 12 10 10 10 10 9 9 8 8 8 8 7 5 6 7 7 8 12 14 13 11 8 7 7 7 9 9 7 5 4 3 2
1 2 4 4 3 3 2 10 8 7 7 11 11 11 11 11 11 11 11 10 10 9 9 9 8 8 8 8 7 6 5 6 7 8 10 13 13 13 9 7 7 8 9 7 5 5 4 3 3
1 2 5 6 3 2 3 10 10 8 8 12 12 11 10 9 9 9 9 9 9 9 9 9 8 8 8 7 6 6 6 6 6 8 8 11 12 13 9 7 6 9 6 5 6 5 4 4 3
3 3 5 6 4 3 7 13 14 10 8 10 10 9 8 8 9 8 7 7 8 8 9 9 8 8 7 5 5 4 5 5 6 6 8 10 11 12 9 6 7 7 6 6 6 5 4 3 4
2 5 9 8 6 5 9 14 15 11 8 8 8 8 8 9 8 6 6 6 7 7 8 9 9 8 6 5 5 6 6 6 6 6 7 9 10 10 8 6 7 7 7 7 7 5 5 3 3
6 8 9 9 5 5 9 13 11 8 7 7 7 7 8 8 6 5 4 4 5 6 7 7 8 8 8 7 5 4 4 5 5 5 6 8 9 9 8 8 7 7 7 7 7 6 4 3 5
7 8 8 8 7 4 5 7 6 5 4 6 6 6 6 6 6 5 5 4 3 5 6 6 7 7 7 7 5 4 3 3 3 5 5 6 7 8 7 8 7 7 7 7 8 8 7 5 4
6 6 7 6 4 3 2 5 6 6 7 7 8 7 7 6 5 4 4 4 3 3 3 4 5 5 5 6 6 7 5 4 4 4 4 5 6 6 7 7 7 7 7 7 8 8 6 6 5
5 3 4 4 3 3 2 2 6 7 8 10 10 9 8 7 6 5 5 4 3 1 2 3 3 3 3 4 6 7 5 4 3 3 4 4 5 5 5 6 6 7 7 7 7 7 7 6 6
3 2 2 1 0 2 2 1 4 5 8 10 10 10 9 8 7 7 6 6 5 3 2 3 3 2 2 4 4 5 5 5 5 4 4 4 3 3 4 4 5 6 6 7 7 8 8 7 7
1 2 3 4 3 2 2 0 3 6 8 8 9 10 10 9 8 8 8 7 7 6 4 4 4 3 3 4 4 4 4 5 4 4 4 3 3 2 3 3 4 5 5 6 6 7 8 8 8
0 1 1 0 2 3 3 2 4 6 7 8 8 9 10 10 10 9 8 7 6 5 5 4 4 4 4 4 4 3 3 3 2 2 2 2 2 3 3 3 4 4 5 5 5 6 7 7 8
0 0 2 2 0 2 3 4 4 5 9 9 10 10 10 10 10 10 10 8 7 6 5 4 4 5 5 4 4 4 4 3 2 2 2 1 1 2 3 3 4 4 5 5 5 5 6 6 7
1 1 1 1 1 2 4 3 4 7 8 8 9 9 9 10 9 10 9 9 9 8 7 7 6 6 5 4 4 4 4 4 3 2 1 1 0 0 1 2 3 4 4 4 4 4 5 6 6
2 1 0 1 1 1 2 3 2 3 4 6 7 7 7 8 9 8 8 8 8 9 9 8 7 7 6 5 5 5 4 4 4 3 2 1 0 0 0 1 1 2 3 4 4 5 5 6 6
1 1 1 0 1 1 1 3 3 1 2 3 5 6 6 7 7 8 9 9 9 9 9 8 8 7 6 6 6 5 5 4 4 3 3 1 1 0 1 1 0 1 2 3 4 5 5 6 7
Wind_Direction
3 9 56 59 68 82 235 233 215 218 219 236 235 219 214 211 197 234 314 91 115 155 167 170 167 167 166 163 160 157 155 153 152 150 150 149 148 147 146 145 144 140 136 133 130 126 121 117 114
2 29 57 72 125 205 247 230 219 217 237 313 301 258 253 261 277 303 334 315 153 154 164 170 170 170 170 167 164 162 161 160 157 155 154 154 153 151 150 147 146 142 138 135 131 127 123 121 118
37 49 90 108 172 201 227 227 224 266 301 321 316 305 268 278 315 311 307 298 124 143 157 169 173 175 174 172 169 167 166 164 162 160 159 158 157 155 153 150 147 143 140 137 133 129 126 124 123
70 54 64 135 219 224 221 215 271 321 330 342 342 308 295 314 315 298 308 8 108 136 154 169 176 181 179 175 173 171 170 169 168 166 164 163 161 160 157 152 147 143 141 140 137 134 131 129 127
59 85 123 223 236 244 247 256 260 298 304 313 331 291 284 326 322 319 346 56 94 131 158 175 178 185 186 182 177 176 176 175 173 171 169 167 166 164 159 154 150 146 146 145 143 140 136 134 132
66 82 150 227 241 263 266 263 277 263 263 291 302 276 263 308 355 346 359 42 77 137 155 176 186 187 190 187 182 180 179 179 177 175 175 173 170 167 162 159 156 153 152 151 150 146 142 139 136
115 126 191 218 249 261 255 262 238 258 265 263 260 265 285 310 343 344 5 30 43 97 123 178 190 190 193 193 190 186 183 182 180 178 178 176 171 168 165 164 161 159 158 157 155 152 148 144 141
122 122 178 217 221 246 284 317 267 241 259 267 229 235 274 293 322 347 7 21 17 22 104 202 181 191 194 195 197 191 186 183 180 178 178 175 172 169 167 166 165 164 163 162 161 158 154 150 147
95 118 207 210 206 236 303 329 311 294 266 278 258 242 271 299 325 348 347 344 332 302 276 232 192 188 196 195 198 192 184 182 180 177 172 169 169 167 168 169 167 167 166 166 166 163 159 154 152
117 191 219 209 205 248 293 282 295 308 295 281 275 269 284 293 303 301 294 284 272 266 259 240 216 204 198 201 193 187 182 179 177 172 167 164 164 166 167 170 170 170 169 170 171 168 163 154 151
162 202 219 239 245 262 282 283 266 255 265 247 257 275 284 284 282 266 257 252 253 256 257 246 226 214 201 197 186 182 175 173 173 169 165 162 161 162 162 166 171 170 169 169 172 166 163 160 160
186 228 224 250 251 258 260 271 266 235 245 250 257 270 276 278 272 260 251 248 246 250 252 248 234 222 212 194 188 187 175 172 174 175 170 165 163 163 165 169 171 170 172 170 169 166 165 167 169
217 261 255 254 264 255 253 251 256 256 257 265 269 266 262 266 266 259 248 244 241 239 244 244 232 221 212 199 198 191 183 180 179 178 177 174 170 173 172 172 175 176 175 176 173 171 169 171 175
231 260 276 269 261 257 252 262 251 262 264 267 265 262 259 259 259 258 249 242 237 236 236 234 225 221 210 203 200 200 186 181 180 182 183 180 178 177 177 176 179 182 183 183 181 178 174 177 178
280 303 298 265 247 251 255 275 240 257 274 273 271 266 265 260 255 250 242 238 235 234 231 227 225 218 211 205 201 201 190 181 182 187 187 186 184 180 179 180 183 185 183 178 174 168 164 171 183
4 337 303 291 253 248 227 273 268 273 279 279 276 272 269 265 254 249 244 238 235 232 228 226 226 214 209 208 199 195 191 184 184 185 187 188 186 182 177 181 185 181 177 176 175 173 172 184 188
12 301 280 297 262 252 236 271 284 296 285 282 283 279 272 269 264 255 247 238 233 225 224 224 218 213 206 203 195 189 188 187 182 181 184 186 184 181 178 181 182 176 175 179 184 181 176 186 188
246 264 278 277 284 272 267 273 289 294 282 280 284 284 276 271 267 260 248 238 233 225 219 219 215 213 203 193 184 184 190 189 182 182 184 182 181 180 178 180 180 176 178 183 184 181 177 180 173
242 268 280 275 272 275 270 278 290 297 297 290 287 286 280 278 270 264 254 240 233 225 215 211 209 208 191 184 182 183 194 191 187 189 184 182 179 179 178 183 179 181 187 188 183 178 177 177 154
248 270 277 286 278 269 276 282 288 291 287 287 292 294 290 292 297 295 279 249 233 227 217 211 207 204 196 189 178 171 174 182 181 182 182 179 178 180 183 184 187 187 189 189 188 179 177 184 176
250 243 257 275 307 289 299 302 306 312 310 319 320 310 307 300 304 303 296 276 255 241 218 207 202 199 194 185 163 147 138 139 169 179 183 179 174 178 180 182 183 188 190 196 196 190 186 191 196
265 243 243 263 301 313 349 309 313 328 336 343 336 335 331 325 326 321 325 325 303 261 218 190 190 191 186 174 165 167 175 177 177 178 180 176 176 180 182 186 186 189 192 195 199 197 194 184 196
237 270 258 260 259 294 327 285 308 343 347 347 346 347 344 346 348 345 344 336 325 298 177 166 169 178 176 165 169 168 171 169 153 149 163 175 180 180 183 187 194 194 197 201 199 200 200 198 198
232 309 298 293 244 316 317 243 316 340 335 339 346 348 351 354 1 4 5 9 14 35 75 114 135 139 142 147 158 167 166 159 157 160 170 177 177 177 183 191 201 200 202 204 205 205 206 209 208
67 31 13 8 12 295 326 203 287 322 337 340 344 350 359 5 10 12 14 17 20 34 51 73 100 105 114 127 135 142 146 143 157 172 176 179 185 192 201 204 207 205 206 207 206 209 209 211 212
285 128 131 277 292 307 345 307 293 324 342 356 5 4 12 15 17 17 15 17 22 37 50 67 89 93 94 100 105 108 115 128 149 154 167 182 199 202 196 207 217 215 210 211 209 215 215 212 215
94 209 185 150 308 323 320 313 322 354 3 9 9 9 11 12 15 15 13 17 27 36 45 64 79 81 79 82 93 93 98 105 106 120 137 171 195 195 190 207 216 220 216 213 212 223 221 215 219
145 181 88 107 49 332 321 326 329 338 349 0 3 5 5 8 13 14 15 19 27 34 41 53 64 72 73 71 77 81 79 79 75 67 65 86 73 174 200 214 218 224 223 215 211 225 228 227 229
6 21 83 131 150 159 319 309 320 312 337 353 354 359 3 6 8 11 14 19 28 34 37 43 48 55 57 61 63 68 63 60 55 44 42 76 73 252 231 251 253 248 242 227 217 222 224 228 235
208 260 177 132 310 182 177 285 334 339 356 359 358 1 8 14 15 15 18 23 31 35 36 39 42 46 47 56 64 65 62 59 55 40 36 68 107 54 35 22 327 271 248 232 223 225 228 230 234
Height
1495 1497 1500 1503 1508 1516 1514 1508 1503 1501 1500 1498 1498 1498 1497 1497 1499 1501 1494 1491 1490 1492 1493 1496 1498 1501 1504 1506 1509 1512 1514 1516 1518 1520 1522 1524 1526 1527 1529 1530 1532 1534 1535 1536 1538 1539 1540 1541 1542
1495 1498 1501 1503 1511 1517 1513 1504 1502 1498 1497 1496 1496 1496 1495 1494 1494 1493 1491 1490 1491 1492 1494 1496 1499 1501 1504 1506 1509 1511 1514 1516 1518 1520 1522 1524 1526 1528 1529 1531 1532 1534 1536 1537 1539 1540 1541 1542 1543
1495 1498 1501 1504 1510 1511 1505 1499 1498 1496 1496 1496 1495 1494 1494 1493 1492 1492 1491 1491 1491 1492 1494 1496 1499 1501 1504 1506 1509 1511 1513 1516 1518 1520 1522 1524 1526 1528 1529 1531 1533 1534 1536 1538 1539 1541 1542 1543 1544
1496 1499 1501 1506 1506 1503 1499 1497 1496 1496 1495 1495 1495 1494 1493 1493 1492 1491 1491 1491 1491 1493 1494 1496 1498 1501 1503 1506 1508 1510 1513 1515 1518 1520 1522 1524 1526 1528 1530 1531 1533 1535 1537 1538 1540 1542 1543 1544 1545
1495 1497 1503 1506 1503 1499 1497 1496 1496 1496 1495 1494 1495 1493 1491 1492 1490 1490 1490 1490 1491 1493 1494 1496 1498 1500 1503 1505 1507 1510 1512 1515 1517 1519 1522 1524 1526 1528 1530 1531 1533 1535 1537 1539 1540 1542 1544 1545 1546
1495 1498 1506 1506 1502 1498 1495 1494 1494 1494 1494 1494 1493 1492 1489 1490 1489 1489 1489 1490 1491 1493 1494 1496 1497 1499 1502 1505 1507 1509 1511 1514 1516 1519 1521 1523 1525 1527 1529 1531 1533 1535 1537 1539 1541 1542 1544 1545 1546
1495 1500 1503 1503 1501 1498 1495 1493 1493 1493 1492 1493 1492 1491 1488 1488 1488 1488 1488 1489 1490 1492 1493 1495 1497 1499 1501 1503 1506 1508 1510 1513 1515 1518 1520 1523 1525 1527 1529 1531 1533 1535 1537 1539 1541 1542 1544 1545 1547
1493 1499 1502 1503 1500 1497 1493 1492 1492 1492 1491 1491 1491 1489 1487 1487 1486 1486 1487 1488 1489 1491 1492 1494 1496 1497 1499 1502 1504 1506 1509 1511 1514 1517 1519 1521 1524 1526 1528 1531 1533 1535 1537 1539 1540 1542 1544 1545 1547
1493 1501 1502 1500 1498 1494 1492 1492 1491 1490 1489 1488 1488 1488 1487 1486 1485 1485 1485 1486 1488 1489 1490 1492 1494 1496 1498 1500 1502 1505 1507 1510 1512 1515 1518 1520 1523 1525 1527 1530 1532 1535 1537 1538 1540 1542 1543 1545 1546
1493 1499 1496 1494 1493 1492 1491 1491 1490 1489 1487 1486 1485 1485 1484 1484 1483 1483 1483 1484 1485 1486 1488 1490 1491 1493 1495 1497 1499 1502 1505 1507 1510 1513 1516 1518 1521 1523 1526 1529 1531 1534 1536 1538 1540 1541 1543 1544 1546
1491 1494 1492 1491 1491 1491 1490 1489 1489 1488 1485 1483 1482 1481 1481 1480 1480 1480 1480 1481 1482 1483 1485 1486 1488 1490 1492 1494 1496 1499 1502 1505 1508 1511 1514 1516 1519 1521 1524 1527 1529 1532 1534 1536 1538 1540 1542 1543 1545
1491 1490 1490 1489 1489 1489 1488 1487 1485 1483 1480 1479 1478 1477 1476 1476 1475 1475 1476 1477 1478 1479 1481 1483 1485 1487 1489 1491 1493 1496 1498 1501 1504 1508 1511 1514 1516 1519 1522 1524 1527 1530 1532 1535 1537 1539 1541 1542 1544
1490 1489 1488 1487 1487 1486 1485 1484 1482 1476 1474 1474 1473 1472 1471 1471 1470 1471 1471 1472 1473 1475 1477 1479 1481 1483 1485 1487 1490 1492 1495 1498 1501 1504 1508 1511 1514 1516 1519 1522 1525 1527 1530 1533 1535 1537 1539 1541 1542
1488 1487 1486 1484 1483 1482 1481 1478 1478 1470 1470 1470 1469 1467 1467 1466 1466 1465 1466 1467 1468 1470 1472 1474 1476 1478 1481 1483 1486 1488 1491 1494 1497 1500 1504 1508 1511 1514 1517 1519 1522 1525 1528 1530 1533 1535 1537 1539 1541
1486 1487 1484 1481 1480 1479 1479 1475 1471 1467 1467 1465 1463 1462 1461 1460 1460 1460 1460 1462 1463 1465 1467 1469 1471 1474 1476 1478 1481 1484 1487 1490 1494 1497 1500 1504 1507 1510 1514 1517 1519 1522 1525 1528 1530 1533 1535 1537 1538
1486 1487 1486 1480 1478 1477 1480 1474 1466 1465 1464 1461 1458 1457 1455 1453 1453 1454 1455 1456 1458 1459 1461 1464 1467 1469 1471 1474 1477 1480 1483 1487 1490 1493 1497 1500 1503 1506 1510 1513 1516 1519 1522 1525 1527 1530 1532 1534 1536
1489 1490 1487 1482 1477 1476 1477 1472 1463 1462 1460 1457 1454 1451 1449 1448 1447 1448 1449 1450 1452 1454 1456 1458 1461 1464 1467 1469 1472 1476 1479 1482 1486 1489 1492 1496 1499 1503 1506 1509 1513 1516 1519 1521 1524 1527 1529 1531 1532
1489 1490 1486 1483 1476 1476 1474 1468 1461 1458 1456 1454 1450 1447 1445 1443 1442 1443 1444 1445 1446 1448 1450 1452 1455 1458 1462 1464 1468 1471 1474 1476 1481 1484 1488 1491 1495 1498 1502 1506 1509 1512 1515 1518 1521 1523 1525 1527 1529
1486 1486 1485 1480 1475 1474 1470 1465 1459 1455 1453 1450 1447 1444 1442 1439 1438 1438 1439 1440 1441 1443 1444 1446 1449 1452 1456 1459 1463 1466 1469 1472 1476 1480 1484 1488 1491 1494 1498 1501 1505 1508 1511 1513 1516 1519 1521 1523 1525
1484 1484 1481 1476 1472 1471 1467 1461 1456 1452 1450 1448 1445 1441 1439 1436 1434 1434 1434 1435 1436 1437 1439 1441 1444 1447 1451 1454 1458 1461 1465 1468 1472 1476 1480 1483 1486 1490 1493 1497 1500 1503 1507 1509 1512 1514 1516 1518 1521
1480 1481 1478 1476 1471 1467 1466 1460 1454 1450 1448 1445 1443 1440 1438 1435 1433 1431 1431 1431 1432 1433 1435 1437 1440 1443 1446 1450 1453 1457 1461 1463 1467 1471 1475 1478 1482 1485 1489 1492 1495 1498 1502 1504 1507 1509 1511 1513 1516
1477 1473 1473 1472 1473 1471 1470 1466 1456 1452 1448 1445 1442 1439 1436 1434 1431 1429 1428 1428 1428 1429 1430 1434 1437 1440 1443 1446 1449 1452 1456 1458 1462 1466 1470 1474 1478 1481 1484 1487 1490 1493 1496 1499 1501 1504 1506 1508 1510
1473 1470 1470 1470 1471 1471 1469 1469 1461 1454 1449 1446 1443 1440 1437 1433 1430 1428 1426 1425 1425 1425 1427 1430 1433 1436 1439 1443 1446 1449 1453 1456 1459 1463 1466 1470 1473 1476 1480 1483 1486 1488 1491 1493 1496 1498 1501 1503 1504
1470 1471 1470 1470 1471 1472 1469 1470 1466 1459 1454 1449 1445 1441 1437 1434 1430 1428 1426 1425 1423 1423 1425 1427 1430 1434 1436 1440 1444 1446 1449 1452 1456 1459 1462 1465 1469 1472 1475 1478 1481 1483 1485 1488 1490 1493 1495 1497 1499
1471 1474 1476 1476 1477 1474 1469 1470 1468 1459 1455 1452 1448 1443 1439 1435 1432 1429 1427 1425 1424 1423 1424 1426 1429 1432 1435 1438 1441 1443 1446 1449 1453 1456 1459 1462 1464 1467 1470 1473 1475 1477 1480 1482 1484 1487 1489 1491 1493
1472 1474 1478 1477 1476 1474 1470 1470 1466 1460 1456 1452 1449 1445 1441 1438 1435 1432 1429 1428 1426 1425 1425 1427 1429 1431 1434 1436 1439 1442 1444 1447 1450 1453 1456 1458 1460 1463 1465 1468 1470 1472 1474 1476 1478 1481 1482 1484 1486
1471 1473 1474 1478 1478 1477 1473 1470 1464 1460 1457 1454 1451 1448 1444 1441 1438 1435 1432 1430 1429 1428 1428 1429 1430 1432 1434 1436 1439 1441 1443 1446 1448 1450 1453 1455 1457 1459 1461 1463 1465 1467 1468 1470 1472 1474 1476 1477 1479
1471 1472 1475 1475 1475 1474 1472 1470 1468 1462 1460 1457 1454 1451 1448 1445 1441 1438 1435 1433 1432 1431 1431 1432 1432 1433 1435 1437 1438 1440 1442 1444 1446 1448 1449 1451 1453 1455 1456 1458 1460 1461 1462 1463 1465 1467 1469 1470 1472
1473 1473 1473 1475 1475 1476 1472 1472 1466 1464 1462 1460 1457 1454 1451 1448 1445 1442 1439 1436 1435 1434 1433 1434 1434 1435 1436 1437 1438 1440 1442 1443 1444 1445 1446 1447 1449 1451 1452 1453 1454 1455 1456 1457 1459 1460 1462 1463 1464
1471 1471 1473 1474 1476 1478 1476 1476 1465 1464 1463 1461 1459 1457 1454 1451 1448 1445 1442 1439 1437 1436 1436 1436 1436 1436 1437 1438 1439 1440 1441 1442 1443 1443 1443 1444 1446 1447 1448 1448 1449 1450 1451 1451 1452 1453 1455 1456 1456